Observer details:
104 San Marcello Pistoiese.  Observers P. Bacci, M. Maestripieri.  Measurers
    P. Bacci, L. Tesi, G. Fagioli.  0.60-m reflector + CCD.
203 GiaGa Observatory.  Observers S. Foglia, G. Galli.  Measurer G. Galli.
    0.28-m f/6.8 Schmidt-Cassegrain + CCD.
204 Schiaparelli Observatory.  Observer L. Buzzi.  0.60-m f/4.64 reflector
    + CCD.
474 Mount John Observatory, Lake Tekapo.  Observers A. C. Gilmore,
    P. M. Kilmartin.  Measurer P. M. Kilmartin.  1.0-m f/7.7 reflector + CCD.
587 Sormano.  Observers A. Fumagalli, I. Proserpio, P. Sicoli, A. Testa.
    Measurer P. Sicoli.  0.5-m f/6.8 reflector + CCD.
595 Farra d'Isonzo.  Observer E. Pettarin.  0.40-m f/4.5 reflector + CCD.
703 Catalina Sky Survey.  Observer G. J. Leonard.  Measurers E. J. Christensen,
    D. C. Fuls, A. R. Gibbs, A. D. Grauer, J. A. Johnson, R. A. Kowalski,
    S. M. Larson, G. J. Leonard, R. G. Matheny, R. L. Seaman, F. C. Shelly.
    0.68-m Schmidt + 10K CCD.
718 Tooele.  Observer P. Wiggins.  0.35-m f/5.5 Schmidt-Cassegrain + CCD.
B49 Paus Observatory, Sabadell.  Observer J. Camarasa.  0.30-m f/4 Newtonian
    reflector + CCD.
H06 iTelescope Observatory, Mayhill.  Observers M. Suzuki, A. Manannikov,
    K. Sokolovsky.  Measurer M. Suzuki.  0.25-m f/3.4 reflector + CCD, 0.43-m
    f/6.8 reflector + CCD.
I52 Steward Observatory, Mt. Lemmon Station.  Observers G. J. Leonard,
    J. A. Johnson.  Measurers E. J. Christensen, D. C. Fuls, A. R. Gibbs,
    A. D. Grauer, J. A. Johnson, R. A. Kowalski, S. M. Larson, G. J. Leonard,
    R. G. Matheny, R. L. Seaman, F. C. Shelly.  1.0-m reflector + CCD.
J95 Great Shefford.  Observer P. Birtwhistle.  0.40-m f/6.0 Schmidt-Cassegrain
    + CCD.
K63 G. Pascoli Observatory, Castelvecchio Pascoli.  Observer R. Bacci.  0.40-m
    f/3.2 Newtonian reflector + CCD.
K65 Cesena.  Observer V. Tinella.  0.40-m f/7 Schmidt-Cassegrain + CCD.
L06 Sormano 2 Observatory, Bellagio Via Lattea.  Observer G. Ventre.  Measurer
    P. Sicoli.  0.28-m f/10 reflector + CCD.
T08 ATLAS-MLO, Mauna Loa.  Observers L. Denneau, A. Heinze, H. Weiland,
    J. Tonry.  Measurers L. Denneau, H. Flewelling, A. Heinze, B. Stalder,
    J. Tonry.  0.5-m f/2.0 Schmidt + CCD.
W88 Slooh.com Chile Observatory, La Dehesa.  Observer K. Dankov.  0.35-m f/11
    Schmidt-Cassegrain + CCD.
Z80 Northolt Branch Observatory.  Observer G. Wells.  Measurer D. Bamberger.
    0.25-m f/8 Ritchey-Chretien + CCD.
 
Orbital elements:
2018 CY2                                                 Earth MOID = 0.0451 AU
Epoch 2018 Mar. 23.0 TT = JDT 2458200.5                 MPC
M 338.06865              (2000.0)            P               Q
n   0.82188444     Peri.   73.45441     -0.73424608     +0.62620552
a   1.1287442      Node   144.03479     -0.65374574     -0.75632075
e   0.1839901      Incl.   26.51654     +0.18302787     -0.18932925
P   1.20           H   22.5           G   0.15           U   6
Residuals in seconds of arc
180209 703  0.5-  0.8-    180210 H06  0.6+  0.1+    180211 474  0.1-  0.0
180209 703  0.3-  0.2-    180210 587  0.1+  0.1+    180211 474  0.6+  0.1-
180209 703  0.6-  0.0     180210 587  0.2+  0.2+    180211 718  0.9-  1.3-
180209 703  0.2+  1.0+    180210 587  0.2+  0.1+    180211 718  0.2-  0.2+
180209 I52  0.2-  0.1-    180210 B49  0.1+  0.4-    180211 718  0.2-  0.5-
180209 I52  0.3-  0.1-    180210 B49  0.4+  0.5+    180211 718  0.4-  0.4-
180209 I52  0.2-  0.4-    180210 B49  0.3+  0.2+    180211 718  0.5-  0.4-
180209 I52  0.1-  0.4-    180211 K63  1.0-  0.8-    180211 718  0.3-  1.3-
180209 I52  0.1-  0.3-    180211 K63  1.1-  0.1-    180211 718  0.3-  0.3-
180209 I52  0.2-  0.3-    180211 K63  0.2+  0.7-    180211 T08  0.3+  0.0
180209 I52  0.0   0.2-    180211 L06  0.3+  0.7-    180211 T08  0.1+  0.0
180209 I52  0.0   0.2-    180211 203  0.2+  0.1-    180211 T08  0.2+  0.0
180209 104  0.1-  0.0     180211 203  0.2+  0.1+    180211 474  0.1+  0.1-
180209 104  0.1-  0.1+    180211 203  0.2+  0.1-    180211 474  0.2-  0.0
180209 104  0.1-  0.1+    180211 204  0.2+  0.1+    180211 474  0.1+  0.1+
180209 K65  0.2+  0.1-    180211 L06  0.4+  0.1+    180211 474  0.2+  0.1-
180209 K65  0.0   0.0     180211 204  0.0   0.3+    180211 T08  0.2+  0.0
180210 K65  0.0   0.0     180211 204  0.1+  0.2+    180211 474  0.1+  0.0
180210 595  0.1+  0.2-    180211 204  0.0   0.1+    180212 Z80  0.3-  1.2+
180210 595  0.1+  0.4-    180211 204  0.1+  0.2+    180212 Z80  0.2+  0.1+
180210 J95  0.1+  0.1+    180211 W88  0.1+  0.0     180212 Z80  1.2+  0.2-
180210 J95  0.1-  0.3+    180211 W88  0.2-  0.1+    180212 Z80  0.7-  0.0
180210 595  0.1-  0.0     180211 W88  0.2+  0.1-    180212 Z80  0.2-  0.4+
180210 J95  0.2+  0.2+    180211 I52  0.1+  0.0     180212 Z80  0.4-  0.2+
180210 I52  0.0   0.2+    180211 I52  0.2+  0.2+    180212 Z80  0.7-  0.6+
180210 I52  0.2+  0.0     180211 I52  0.0   0.0     180212 Z80  0.4-  0.2-
180210 I52  0.2-  0.2+    180211 I52  0.4+  0.2+    180212 J95  0.1-  0.0
180210 I52  0.3+  0.1+    180211 474  0.2-  0.4-    180212 Z80  0.7+  0.2+
180210 H06  0.7+  0.4+    180211 474  0.1+  0.2-    180212 J95  0.0   0.0
180210 H06  0.4+  0.1+    180211 474  0.4-  0.5-    180212 J95  0.1+  0.1+

Ephemeris:
2018 CY2                 a,e,i = 1.13, 0.18, 27                  q = 0.9211
Date    TT    R. A. (2000) Decl.     Delta      r     Elong.  Phase     V
2018 01 13    09 34 47.0 -40 14 41   0.2888  1.1257   112.4    53.9    22.0
...
2018 01 28    09 58 19.7 -36 08 16   0.1619  1.0805   122.5    50.2    20.6
...
2018 02 05    10 23 36.6 -25 49 00   0.09694 1.0564   134.8    41.5    19.2
...
2018 02 11    11 03 52.5 -01 07 09   0.05740 1.0387   153.7    24.9    17.5
2018 02 12    11 14 38.4 +06 15 15   0.05309 1.0358   155.8    23.0    17.3
2018 02 13    11 27 20.7 +14 43 21   0.04996 1.0329   155.2    23.6    17.2
...
2018 02 19    13 56 56.0 +62 24 10   0.06116 1.0159   115.0    61.9    18.7
...
2018 02 27    18 29 43.2 +69 22 29   0.1163  0.9944    88.7    84.6    20.8
...
2018 03 14    20 19 07.5 +62 16 56   0.2312  0.9595    74.7    91.8    22.5

A. U. Tomatic                (C) Copyright 2018 MPC           M.P.E.C. 2018-C87



More information about the Iaude mailing list